Capitol Logistics 260


KBOS
Logan International Airport
Boston, Massachusetts, US
KIAD
Washington Dulles International Airport
Dulles, Virginia, US

Activity Log

Date Flight Route Aircraft Duration
05/12/2020 CPX260 KBOS/33L PATSS5 PATSS BIGGY MXE HYPER7 KIAD/I01C B763 1h 29m
03/25/2020 CPX260 KBOS/04R PATSS5 PATSS BIGGY MXE HYPER7 KIAD/I01C B763 1h 33m
03/17/2020 CPX260 PATSS5 PATSS BIGGY MXE HYPER7 B763 1h 33m
01/15/2020 CPX260 PATSS5 PATSS BIGGY MXE HYPER7 B763 1h 48m
12/25/2019 CPX260 BLZZR4 BLZZR BAF HYPER7 B763 1h 30m
12/11/2019 CPX260 BLZZR4 BLZZR BAF HYPER7 B763 1h 31m
11/01/2019 CPX260 BLZZR4 BLZZR NELIE J75 SBJ MXE HYPER7 B763 1h 42m
05/29/2019 CPX260 BLZZR4 BLZZR BAF HYPER7 B763 1h 20m

Route Details

Aircraft Information
Primary: Boeing 767-300BDSF
Backup: Boeing 757-200SF
Route Data
Distance: 359nm
Sched. Duration: 1h 33m
Avg. Duration: 1h 33m (+0m)
Times Flown: 8
Recm'd Route: BLZZR4 BLZZR BAF HYPER7
Planned Altitude: 30,000ft
Origin Wx: KBOS 220154Z 22007KT 10SM BKN065 M01/M06 A2963 RMK AO2 SLP032 T10111056 $
Dest. Wx: KIAD 220152Z 29007KT 10SM CLR 05/M08 A2970 RMK AO2 SLP058 T00501083
Notes:

Financial History
Total Freight: 710,285lbs
Average Load: 88,786lbs/flt
Fuel Used: 118,232lbs
Avg. Fuel Used: 14,779lbs/flt
Fuel Expense: $139,514
Avg. Fuel Expense: $17,439
Avg. Fuel Cost: $1.18/lbs
Total Gross Income: $953,134
Pilot Pay: $1,672
Total Expenses: $103,354
Total Revenue: $707,235
Average Revenue: $119,141.72